TimeCST,TemperatureF,Dew PointF,Humidity,Sea Level PressureIn,VisibilityMPH,Wind Direction,Wind SpeedMPH,Gust SpeedMPH,PrecipitationIn,Events,Conditions,WindDirDegrees,DateUTC
12:23 AM,24.8,24.8,100,30.17,10.0,WNW,4.6,-,N/A,,Overcast,300,2013-12-15 06:23:00
12:58 AM,25.2,24.1,96,30.21,10.0,NW,3.5,-,N/A,,Overcast,310,2013-12-15 06:58:00
1:58 AM,25.2,24.3,96,30.22,10.0,WNW,4.6,-,N/A,,Overcast,300,2013-12-15 07:58:00
2:58 AM,25.2,24.1,96,30.22,10.0,WNW,3.5,-,N/A,,Overcast,290,2013-12-15 08:58:00
3:58 AM,24.8,23.4,94,30.22,10.0,Variable,5.8,-,N/A,,Overcast,0,2013-12-15 09:58:00
4:58 AM,24.4,23.4,96,30.22,10.0,West,6.9,-,N/A,,Overcast,270,2013-12-15 10:58:00
5:23 AM,24.8,23.0,93,30.17,10.0,West,5.8,-,N/A,,Overcast,280,2013-12-15 11:23:00
5:58 AM,24.4,23.9,98,30.22,10.0,Variable,5.8,-,N/A,,Overcast,0,2013-12-15 11:58:00
6:48 AM,23.0,23.0,100,30.17,10.0,SW,2.3,-,N/A,,Scattered Clouds,220,2013-12-15 12:48:00
6:58 AM,22.8,22.6,99,30.22,10.0,SW,2.3,-,N/A,,Partly Cloudy,230,2013-12-15 12:58:00
7:58 AM,22.3,21.9,99,30.24,8.0,SSW,4.6,-,N/A,,Clear,210,2013-12-15 13:58:00
8:58 AM,26.1,23.2,89,30.23,10.0,Variable,4.6,-,N/A,,Clear,0,2013-12-15 14:58:00
9:58 AM,28.6,24.1,83,30.23,10.0,Variable,5.8,-,N/A,,Clear,0,2013-12-15 15:58:00
10:58 AM,32.9,26.2,76,30.21,10.0,SSW,8.1,-,N/A,,Clear,210,2013-12-15 16:58:00
11:58 AM,36.3,28.8,74,30.18,10.0,Variable,6.9,-,N/A,,Clear,0,2013-12-15 17:58:00
12:58 PM,39.9,31.1,71,30.14,10.0,SW,8.1,17.3,N/A,,Clear,230,2013-12-15 18:58:00
1:58 PM,42.8,32.0,66,30.11,10.0,Variable,6.9,-,N/A,,Clear,0,2013-12-15 19:58:00
2:58 PM,44.8,32.2,61,30.09,10.0,Variable,6.9,-,N/A,,Clear,0,2013-12-15 20:58:00
3:58 PM,43.3,31.5,63,30.10,10.0,SW,5.8,-,N/A,,Clear,220,2013-12-15 21:58:00
4:58 PM,40.8,31.5,69,30.10,10.0,SSW,4.6,-,N/A,,Clear,210,2013-12-15 22:58:00
5:58 PM,38.7,31.8,76,30.11,10.0,SW,3.5,-,N/A,,Overcast,220,2013-12-15 23:58:00
6:58 PM,37.9,32.5,81,30.11,10.0,SSW,5.8,-,N/A,,Partly Cloudy,210,2013-12-16 00:58:00
7:58 PM,39.0,32.5,78,30.09,10.0,SSW,8.1,-,N/A,,Overcast,210,2013-12-16 01:58:00
8:58 PM,40.1,32.5,74,30.09,10.0,SW,8.1,-,N/A,,Overcast,230,2013-12-16 02:58:00
9:58 PM,40.5,32.5,73,30.08,10.0,Variable,5.8,-,N/A,,Overcast,0,2013-12-16 03:58:00
10:58 PM,40.6,32.5,73,30.06,10.0,SW,5.8,-,N/A,,Overcast,220,2013-12-16 04:58:00
11:58 PM,41.0,31.8,70,30.05,10.0,Variable,5.8,-,N/A,,Partly Cloudy,0,2013-12-16 05:58:00